RS4S

Last updated on Sun Aug 28 2022 00:02:06 GMT+0000 (Coordinated Universal Time)

1 53321U 98067TZ 22239.46379983 .00027872 00000+0 45348-3 0 9993 2 53321 51.6431 343.1749 0001317 154.8813 205.2242 15.52446448 5778
UTC large
Height (km)
Speed (km/s)
/
Latitude / Longitude
Inclination (degrees)
Orbital Period (minutes)
Azimuth
Elevation
Range (km)
Doppler Factor

Next 0 passes for location: London (51.5072 / 0.1276)

Sorry there are no passes over London.